カタログに戻る

STARLINK-34097

運用中通信VLEO
NORAD 63903·PAYLOAD·🇺🇸 United States

打ち上げ May 10, 2025 から Cape Canaveral Space Force Station

Loading…

次のパス (今後24時間)

TLE

最新Source: CelesTrak SupGP

元期: Sep 14, 2026, 20:41 UTC

1 63903C 25095P   26257.86229167  .00013619  00000+0  49319-3 0  2570
2 63903  43.0003 187.7463 0001372 261.2107 353.8258 15.27576929    19

AllMySatでSTARLINK-34097をリアルタイム追跡

Download on the App Store